Tracking 18980 objects as of 22-Feb-2018
HD Live streaming from Space Station
objects crossing your sky now

LEMUR 2 JENNYBARNA

Track LEMUR 2 JENNYBARNA now!
10-day predictions
LEMUR 2 JENNYBARNA is classified as:


NORAD ID: 42753
Int'l Code: 2017-019C
Perigee: 478.4 km
Apogee: 493.1 km
Inclination: 51.6 °
Period: 94.2 minutes
Semi major axis: 6856 km
RCS: Unknown
Launch date: April 18, 2017
Source: United States (US)
Launch site: AIR FORCE EASTERN TEST RANGE (AFETR)
aabbcc
Your satellite tracking list
Your tracking list is empty




NASA's NSSDC Master Catalog

Two Line Element Set (TLE):
1 42753U 17019C   18052.85462224  .00002501  00000-0  99792-4 0  9996
2 42753  51.6393 283.2865 0010787 151.8270 208.3295 15.29063755 39421
Source of the keplerian elements: AFSPC